Flag for Germany Weather past 2 weeks in Augsburg, Bavaria, Germany

Now
84 °F

Sunny.


Feels Like: 83 °F
Forecast: 54 / 66 °F
Wind: 2 mph from North

Location: Augsburg Airport

Current Time: Sep 1, 2015 at 12:15:57 PM

Latest Report: Sep 1, 2015 at 11:50 AM


Visibility: 10 mi

Pressure: 29.86 "Hg

Humidity: 35%

Dew point: 54 °F

Location of AugsburgLocation

Historic Weather in Augsburg — Graph

°F

Augsburg temperature yesterday

Maximum temperature yesterday: 90 °F (at 2:20 PM)
Minimum temperature yesterday: 61 °F (at 6:20 AM)
Average temperature yesterday: 80 °F

Past Weeks' High & Low Weather Summary

 TemperatureHumidityPressure
High91 °F (Aug 30, 4:20 PM)100% (Aug 17, 11:20 AM)30.30 "Hg (Aug 17, 11:20 AM)
Low45 °F (Aug 26, 6:20 AM)25% (Aug 31, 6:50 PM)29.74 "Hg (Aug 24, 2:20 PM)
Average70 °F60%30.05 "Hg
* Reported Aug 17 11:20 AM — Sep 1 11:20 AM, Augsburg, Weather by CustomWeather, © 2015

Note: Actual official high and low records may vary slightly from our data, if they occured in-between our weather recording intervals... More about our weather records

Advertising

Augsburg weather history for previous 24 hours

 ConditionsComfort  
Time TempWeatherWind HumidityBarometerVisibility
11:20 AM
Tue, Sep 1
82 °FSunny.2 mph37%29.86 "Hg10 mi
10:50 AM81 °FSunny.2 mph42%29.86 "Hg10 mi
10:20 AM79 °FPassing clouds.3 mph42%29.86 "HgN/A
9:50 AM75 °FPassing clouds.5 mph50%29.86 "HgN/A
9:20 AM72 °FSunny.5 mph57%29.86 "Hg10 mi
8:50 AM68 °FSunny.6 mph64%29.89 "Hg10 mi
8:20 AM66 °FSunny.5 mph64%29.89 "Hg10 mi
7:50 AM63 °FSunny.3 mph77%29.89 "Hg10 mi
7:20 AM61 °FClear.3 mph77%29.89 "Hg10 mi
6:50 AM63 °FClear.6 mph68%29.89 "Hg10 mi
5:50 AM59 °FClear.5 mph77%29.89 "Hg10 mi
8:50 PM
Mon, Aug 31
77 °FSunny.8 mph30%29.92 "Hg10 mi
8:20 PM77 °FSunny.7 mph32%29.92 "Hg10 mi
7:50 PM81 °FSunny.8 mph28%29.92 "Hg10 mi
7:20 PM84 °FSunny.10 mph25%29.92 "Hg10 mi
6:50 PM86 °FSunny.9 mph25%29.92 "Hg10 mi
6:20 PM88 °FSunny.8 mph31%29.92 "Hg10 mi
5:50 PM88 °FSunny.9 mph33%29.92 "Hg10 mi
5:20 PM88 °FPassing clouds.8 mph29%29.92 "HgN/A
4:50 PM90 °FSunny.8 mph27%29.95 "Hg10 mi
4:20 PM90 °FPassing clouds.8 mph29%29.95 "HgN/A
3:50 PM90 °FPassing clouds.8 mph29%29.95 "HgN/A
3:20 PM90 °FSunny.3 mph29%29.95 "Hg10 mi
2:50 PM88 °FPassing clouds.6 mph33%29.98 "HgN/A
2:20 PM90 °FSunny.3 mph33%29.98 "Hg10 mi
1:50 PM88 °FSunny.5 mph33%29.98 "Hg10 mi
1:20 PM86 °FPassing clouds.6 mph38%29.98 "HgN/A
12:50 PM86 °FPassing clouds.5 mph38%30.01 "HgN/A
12:20 PM84 °FPassing clouds.8 mph40%30.01 "HgN/A
Weather by CustomWeather, © 2015

See weather overviewHow to use our weather pages